LBSFLBWN

Guest
Details From LBSF - Sofia
To LBWN - Varna
Flight Number -
Tags generated
Created
Modified
Stats Distance 197 nm / 365 km
Max Altitude 19,800 ft / 6,035 m
Waypoints 3
Social Downloads 13
Likes 0
Share VATSIM

Download

Looking for another format? Having issues loading an existing format? Contact us
Advertisement - Login to hide

Notes

Basic altitude profile: - Ascent Rate: 2500ft/min - Ascent Speed: 250kts - Cruise Altitude: 35000ft - Cruise Speed: 420kts - Descent Rate: 1500ft/min - Descent Speed: 250kts Options: - Use NATs: yes - Use PACOTS: yes - Use low airways: yes - Use high airways: yes

Route

LBSF GRN LBWN

ID Type Via Altitude Latitude Longitude Leg Dist Tot Dist Heading (true) Name
O LBSF APT - 0 ft / 0 m 42.69713˚ 23.41672˚ - 0 nm - Sofia
GRN VOR - 19,800 ft / 6,035 m 43.15389˚ 25.71083˚ 104 nm 104 nm 74° / 76° GORNA ORYAHOVITSA VOR-DME
O LBWN APT - 0 ft / 0 m 43.23204˚ 27.82524˚ 92 nm 197 nm 86° / 88° Varna

Altitude Profile

Advertisement - Login to hide

Weather


0- 5 10 15 20 25 30 35+ Temperature / ° C

Clouds and Precipitation
Forecast for 2017-12-17 18:00 UTC. Updated 32 minutes ago

Ground ~20,000 ft ~40,000 ft Winds

LBSF

Details ICAO LBSF (SOF)
Name Sofia
Region Bulgaria
Timezone Europe/Sofia (UTC+2.0)
Stats Elevation 1,741 ft / 531 m (AMSL)
Location 42.697130° 23.416722°
Runways 1
Magnetic Variation 4.935° E

METAR

LBSF 171730Z 27011KT 9999 -SN SCT019 OVC028 01/01 Q1013 TEMPO 5000 SN

Decode

TAF

TAF LBSF 171100Z 1712/1812 29010KT 4000 -SN SCT005 BKN012 OVC025 TEMPO 1712/1714 1000 SN SCT003 BKN005 OVC010 BECMG 1715/1717 9999 NSW BKN015 OVC035 BECMG 1807/1809 10010KT

Decode

Departure Runways

ID Width Length Bearing (true) Bearing (mag) Surface Threshold Offset Overrun Length
09 148 ft / 45 m 11,801 ft / 3,597 m 93.99° 89.06° Asphalt 984 ft / 300 m 525 ft / 160 m
27 148 ft / 45 m 11,801 ft / 3,597 m 274.02° 269.09° Asphalt 0 ft / 0 m 525 ft / 160 m

LBWN

Details ICAO LBWN (VAR)
Name Varna
Region Bulgaria
Timezone Europe/Sofia (UTC+2.0)
Stats Elevation 230 ft / 70 m (AMSL)
Location 43.232042° 27.825236°
Runways 1
Magnetic Variation 5.648° E

METAR

LBWN 171730Z 28010KT 240V310 8000 -RADZ SCT009 BKN017 OVC027 04/02 Q1010 NOSIG

Decode

TAF

TAF LBWN 171100Z 1712/1812 01014KT 6000 RA BKN010 OVC025 PROB30 1712/1715 3000 SHRA SCT020CB BECMG 1718/1720 28008KT 9999 NSW SCT015 BKN025

Decode

Destination Runways

ID Width Length Bearing (true) Bearing (mag) Surface Threshold Offset Overrun Length
09 180 ft / 55 m 8,254 ft / 2,516 m 97.11° 91.46° Concrete 350 ft / 107 m 0 ft / 0 m
27 180 ft / 55 m 8,254 ft / 2,516 m 277.13° 271.48° Concrete 350 ft / 107 m 0 ft / 0 m

Approach Navaids

Runway Type Ident Frequency Range Bearing (true) Bearing (mag) Slope Elevation
09 Localiser IWN 109.90 MHz 18 nm / 33 km 97.27° 91.62° - 230 ft / 70 m (AMSL)
09 Glidescope IWN 109.90 MHz 10 nm / 19 km 97.12° 91.48° 3.00° 230 ft / 70 m (AMSL)

Popular Alternatives